Tracking 29892 objects as of 21-Nov-2024
HD Live streaming from Space Station
objects crossing your sky now

FENGYUN 1C DEB

Track FENGYUN 1C DEB now!
10-day predictions


NORAD ID: 30250
Int'l Code: 1999-025XK
Perigee: 846.7 km
Apogee: 948.9 km
Inclination: 98.7 °
Period: 102.8 minutes
Semi major axis: 7268 km
RCS: 0.0479 m2 (small)
Launch date: May 10, 1999
Source: People's Republic of China (PRC)
Launch site: Taiyaun Space Center, China (TSC)

Note: This is SATELLITE DEBRIS
Your satellite tracking list
Your tracking list is empty




NASA's NSSDC Master Catalog

Two Line Element Set (TLE):
1 30250U 99025XK  24325.84972519  .00000657  00000-0  45783-3 0  9994
2 30250  98.7398 328.0460 0070264 220.8053 260.1857 14.00912290910735
Source of the keplerian elements: AFSPC